Regional Weather Roundup
Issued by NWS

Home | Current Version | Previous Version | Graphics & Text | Print | Product List | Glossary On
Versions: 1 2 3 4 5 6 7 8 9 10 11 12 13 14 15 16 17 18 19 20 21 22 23 24 25 26 27 28 29 30 31 32 33 34 35 36 37 38 39 40 41 42 43 44 45 46 47 48 49 50
000
ASUS43 KLSX 212157
RWRMO

WEATHER SUMMARY FOR MISSOURI
NATIONAL WEATHER SERVICE SPRINGFIELD MO
500 PM CDT MON AUG 21 2017

NOTE: "FAIR" INDICATES FEW OR NO CLOUDS BELOW 12,000 FEET WITH NO
       SIGNIFICANT WEATHER AND/OR OBSTRUCTIONS TO VISIBILITY.
       CURRENT SKY AND/OR WEATHER CONDITIONS ARE NOT AVAILABLE FOR
       CHILLICOTHE AND FARMINGTON.

MOZ001>031-035>038-043-044-053-054-212300-
...NORTHERN AND WESTERN MISSOURI...

CITY           SKY/WX    TMP DP  RH WIND       PRES   REMARKS
KANSAS CTY INT CLOUDY    76  70  82 S8        29.98S
LEE`S SUMMIT   MOSUNNY   77  72  84 E10       30.02F
ST JOSEPH      CLOUDY    80  74  81 SE10      29.98R
CHILLICOTHE      N/A     72  71  97 S9        30.01F

$$
MOZ066>068-077>081-088>096-101>105-212300-
...SOUTHWEST MISSOURI...

CITY           SKY/WX    TMP DP  RH WIND       PRES   REMARKS
SPRINGFIELD    MOSUNNY   88  74  63 S9        30.05F HX  96
JOPLIN         SUNNY     91  75  59 S13       30.03F HX 101
BRANSON        MOSUNNY   90  72  55 S6        30.08F HX  96

$$
MOZ032>034-039>042-045>050-055>058-069>072-212300-
...CENTRAL MISSOURI...

CITY           SKY/WX    TMP DP  RH WIND       PRES   REMARKS
COLUMBIA       NOT AVBL
JEFFERSON CITY SUNNY     91  74  57 SW8       30.01R HX 100
ROLLA          MOSUNNY   88  73  61 SW7       30.06S HX  95
SEDALIA        CLOUDY    89  77  67 S6        30.04S HX 101
WARRENSBURG    PTSUNNY   88  75  66 S6        30.01S HX  97

$$
MOZ051-052-059>065-212300-
...EAST CENTRAL MISSOURI...

CITY           SKY/WX    TMP DP  RH WIND       PRES   REMARKS
ST LOUIS INTL  PTSUNNY   87  75  67 E7        30.02F HX  96

$$
MOZ072>076-082>087-097>100-106>115-212300-
...SOUTH CENTRAL AND SOUTHEAST MISSOURI...

CITY           SKY/WX    TMP DP  RH WIND       PRES   REMARKS
CAPE GIRARDEAU MOSUNNY   91  75  59 SW8       30.03F HX 101
POPLAR BLUFF   SUNNY     90  77  65 SW7       30.03F HX 103
WEST PLAINS    SUNNY     88  71  57 S12       30.09F HX  94

$$


USA.gov is the U.S. government's official web portal to all federal, state and local government web resources and services.